| time (UTC) | temp F | wind direction | speed knots | gust knots | rain 1hr in | rain 24hr in | rain mn in | humidity % | barometer mb |
| 20260506195038 | 55 | 24 | 10.4 | 17.4 | 0.00 | 0.15 | 0.15 | 33 | 1015.5 |
| 20260506194537 | 55 | 3 | 11.3 | 17.4 | 0.00 | 0.15 | 0.15 | 32 | 1015.7 |
| 20260506194035 | 55 | 359 | 12.2 | 16.5 | 0.00 | 0.15 | 0.15 | 31 | 1015.7 |
| 20260506193534 | 55 | 336 | 8.7 | 17.4 | 0.00 | 0.15 | 0.15 | 32 | 1015.6 |
| 20260506193032 | 55 | 47 | 11.3 | 17.4 | 0.00 | 0.15 | 0.15 | 32 | 1015.6 |
| 20260506192533 | 55 | 329 | 11.3 | 17.4 | 0.00 | 0.15 | 0.15 | 32 | 1015.6 |
| 20260506192030 | 54 | 359 | 11.3 | 18.2 | 0.00 | 0.15 | 0.15 | 32 | 1015.5 |
| 20260506191529 | 55 | 311 | 11.3 | 18.2 | 0.00 | 0.15 | 0.15 | 32 | 1015.5 |
| 20260506191026 | 55 | 16 | 12.2 | 18.2 | 0.00 | 0.15 | 0.15 | 34 | 1015.5 |
| 20260506190525 | 54 | 1 | 10.4 | 19.1 | 0.00 | 0.15 | 0.15 | 34 | 1015.5 |
| 20260506190033 | 54 | 350 | 12.2 | 19.1 | 0.00 | 0.15 | 0.15 | 31 | 1015.6 |
| 20260506185521 | 54 | 328 | 9.6 | 20.0 | 0.00 | 0.15 | 0.15 | 31 | 1015.5 |
| 20260506185020 | 54 | 309 | 12.2 | 20.0 | 0.00 | 0.15 | 0.15 | 31 | 1015.5 |
| 20260506184519 | 54 | 319 | 12.2 | 18.2 | 0.00 | 0.15 | 0.15 | 32 | 1015.7 |
| 20260506184018 | 53 | 345 | 8.7 | 16.5 | 0.00 | 0.15 | 0.15 | 33 | 1015.6 |
| 20260506183516 | 53 | 19 | 12.2 | 16.5 | 0.00 | 0.15 | 0.15 | 31 | 1015.7 |
| 20260506183015 | 53 | 1 | 9.6 | 16.5 | 0.00 | 0.15 | 0.15 | 31 | 1015.7 |
| 20260506182513 | 53 | 345 | 10.4 | 20.0 | 0.00 | 0.15 | 0.15 | 32 | 1015.5 |
| 20260506182017 | 53 | 336 | 12.2 | 20.0 | 0.00 | 0.15 | 0.15 | 32 | 1015.5 |
| 20260506181510 | 54 | 340 | 11.3 | 19.1 | 0.00 | 0.15 | 0.15 | 33 | 1015.5 |
| 20260506181009 | 53 | 345 | 9.6 | 19.1 | 0.00 | 0.15 | 0.15 | 33 | 1015.4 |
| 20260506180510 | 53 | 310 | 9.6 | 20.0 | 0.00 | 0.15 | 0.15 | 33 | 1015.5 |
| 20260506180006 | 53 | 331 | 12.2 | 22.6 | 0.00 | 0.15 | 0.15 | 32 | 1015.4 |
| 20260506175507 | 53 | 359 | 12.2 | 22.6 | 0.00 | 0.15 | 0.15 | 34 | 1015.4 |
| 20260506175003 | 52 | 2 | 13.0 | 18.2 | 0.00 | 0.15 | 0.15 | 33 | 1015.5 |
| 20260506174611 | 53 | 18 | 13.0 | 18.2 | 0.00 | 0.15 | 0.15 | 33 | 1015.3 |
| 20260506174502 | 53 | 323 | 12.2 | 20.0 | 0.00 | 0.15 | 0.15 | 35 | 1015.4 |
| 20260506174101 | 53 | 332 | 10.4 | 20.0 | 0.00 | 0.15 | 0.15 | 37 | 1015.3 |
| 20260506173559 | 52 | 33 | 10.4 | 19.1 | 0.00 | 0.15 | 0.15 | 38 | 1015.2 |
| 20260506173058 | 52 | 7 | 13.0 | 19.1 | 0.00 | 0.15 | 0.15 | 39 | 1015.2 |
| 20260506172555 | 52 | 350 | 13.0 | 17.4 | 0.00 | 0.15 | 0.15 | 37 | 1015.0 |
| 20260506172054 | 52 | 337 | 11.3 | 17.4 | 0.00 | 0.15 | 0.15 | 38 | 1014.9 |
| 20260506171557 | 52 | 309 | 11.3 | 20.9 | 0.00 | 0.15 | 0.15 | 38 | 1014.9 |
| 20260506171052 | 52 | 345 | 12.2 | 21.7 | 0.00 | 0.15 | 0.15 | 37 | 1014.8 |
| 20260506170550 | 52 | 345 | 11.3 | 20.0 | 0.00 | 0.15 | 0.15 | 38 | 1014.6 |
| 20260506170049 | 52 | 37 | 13.0 | 20.0 | 0.00 | 0.15 | 0.15 | 36 | 1014.5 |
| 20260506165546 | 52 | 33 | 11.3 | 20.0 | 0.00 | 0.15 | 0.15 | 37 | 1014.4 |
| 20260506165045 | 52 | 359 | 12.2 | 20.9 | 0.00 | 0.15 | 0.15 | 37 | 1014.3 |
| 20260506164548 | 52 | 338 | 13.9 | 20.9 | 0.00 | 0.15 | 0.15 | 37 | 1014.3 |
| 20260506164042 | 52 | 326 | 10.4 | 19.1 | 0.00 | 0.15 | 0.15 | 40 | 1014.1 |
| 20260506163540 | 52 | 339 | 11.3 | 20.9 | 0.00 | 0.15 | 0.15 | 40 | 1014.2 |
| 20260506163055 | 52 | 8 | 9.6 | 20.9 | 0.00 | 0.15 | 0.15 | 41 | 1014.1 |
| 20260506162537 | 52 | 336 | 11.3 | 18.2 | 0.00 | 0.15 | 0.15 | 43 | 1013.9 |
| 20260506162037 | 52 | 337 | 11.3 | 19.1 | 0.00 | 0.15 | 0.15 | 41 | 1013.9 |
| 20260506161537 | 52 | 332 | 11.3 | 20.9 | 0.00 | 0.15 | 0.15 | 42 | 1013.8 |
| 20260506161035 | 52 | 339 | 12.2 | 20.9 | 0.00 | 0.15 | 0.15 | 43 | 1013.9 |
| 20260506160531 | 52 | 341 | 10.4 | 18.2 | 0.01 | 0.15 | 0.15 | 46 | 1013.7 |
| 20260506160030 | 51 | 12 | 11.3 | 19.1 | 0.01 | 0.15 | 0.15 | 43 | 1013.7 |
| 20260506155528 | 51 | 338 | 12.2 | 19.1 | 0.01 | 0.15 | 0.15 | 43 | 1013.7 |
| 20260506155027 | 51 | 360 | 12.2 | 18.2 | 0.01 | 0.15 | 0.15 | 44 | 1013.6 |
| 20260506154534 | 51 | 5 | 10.4 | 15.6 | 0.01 | 0.15 | 0.15 | 43 | 1013.5 |
| 20260506154024 | 51 | 28 | 9.6 | 17.4 | 0.01 | 0.15 | 0.15 | 44 | 1013.6 |
| 20260506153523 | 51 | 311 | 11.3 | 20.9 | 0.01 | 0.15 | 0.15 | 42 | 1013.6 |
| 20260506153025 | 51 | 323 | 11.3 | 20.9 | 0.01 | 0.15 | 0.15 | 42 | 1013.5 |
| 20260506152520 | 51 | 307 | 8.7 | 14.8 | 0.01 | 0.15 | 0.15 | 43 | 1013.5 |
| 20260506152018 | 50 | 345 | 10.4 | 14.8 | 0.01 | 0.15 | 0.15 | 42 | 1013.4 |
| 20260506151517 | 50 | 359 | 9.6 | 15.6 | 0.01 | 0.15 | 0.15 | 41 | 1013.3 |
| 20260506151016 | 50 | 317 | 10.4 | 20.0 | 0.01 | 0.15 | 0.15 | 40 | 1013.3 |
| 20260506150518 | 50 | 323 | 10.4 | 17.4 | 0.00 | 0.14 | 0.14 | 40 | 1013.2 |
| 20260506150012 | 50 | 311 | 11.3 | 18.2 | 0.00 | 0.14 | 0.14 | 39 | 1013.2 |
| 20260506145511 | 50 | 350 | 11.3 | 18.2 | 0.00 | 0.14 | 0.14 | 39 | 1013.2 |
| 20260506145009 | 50 | 5 | 10.4 | 17.4 | 0.00 | 0.14 | 0.14 | 40 | 1013.0 |
| 20260506144507 | 49 | 359 | 10.4 | 19.1 | 0.00 | 0.14 | 0.14 | 39 | 1012.9 |
| 20260506144009 | 49 | 339 | 12.2 | 19.1 | 0.00 | 0.14 | 0.14 | 39 | 1012.7 |
| 20260506143507 | 49 | 338 | 10.4 | 16.5 | 0.00 | 0.14 | 0.14 | 42 | 1012.8 |
| 20260506143004 | 49 | 307 | 9.6 | 15.6 | 0.00 | 0.14 | 0.14 | 48 | 1012.7 |
| 20260506142503 | 49 | 345 | 9.6 | 13.9 | 0.00 | 0.14 | 0.14 | 49 | 1012.7 |
| 20260506142000 | 49 | 328 | 9.6 | 13.9 | 0.00 | 0.14 | 0.14 | 50 | 1012.7 |
| 20260506141558 | 48 | 328 | 9.6 | 13.9 | 0.00 | 0.14 | 0.14 | 52 | 1012.7 |
| 20260506141057 | 48 | 295 | 6.1 | 13.0 | 0.00 | 0.14 | 0.14 | 52 | 1012.7 |
| 20260506140558 | 48 | 325 | 6.1 | 13.0 | 0.00 | 0.14 | 0.14 | 53 | 1012.7 |
| 20260506140056 | 48 | 309 | 8.7 | 13.0 | 0.00 | 0.14 | 0.14 | 53 | 1012.7 |
| 20260506135553 | 47 | 315 | 7.0 | 12.2 | 0.00 | 0.14 | 0.14 | 53 | 1012.7 |
| 20260506135051 | 47 | 290 | 7.8 | 12.2 | 0.00 | 0.14 | 0.14 | 53 | 1012.7 |
| 20260506134550 | 47 | 289 | 6.1 | 10.4 | 0.00 | 0.14 | 0.14 | 52 | 1012.6 |
| 20260506134048 | 46 | 299 | 6.1 | 10.4 | 0.00 | 0.14 | 0.14 | 50 | 1012.6 |
| 20260506133547 | 46 | 302 | 6.1 | 11.3 | 0.00 | 0.14 | 0.14 | 50 | 1012.5 |
| 20260506133048 | 46 | 313 | 7.0 | 11.3 | 0.00 | 0.14 | 0.14 | 49 | 1012.4 |
| 20260506132545 | 45 | 303 | 6.1 | 10.4 | 0.00 | 0.14 | 0.14 | 44 | 1012.3 |
| 20260506132043 | 45 | 338 | 6.1 | 9.6 | 0.00 | 0.14 | 0.14 | 38 | 1012.3 |
| 20260506131541 | 45 | 338 | 5.2 | 9.6 | 0.00 | 0.14 | 0.14 | 23 | 1012.2 |
| 20260506131039 | 45 | 299 | 4.3 | 8.7 | 0.00 | 0.14 | 0.14 | 1 | 1012.0 |
| 20260506130538 | 44 | 301 | 3.5 | 8.7 | 0.00 | 0.14 | 0.14 | 1 | 1012.0 |
| 20260506130040 | 44 | 303 | 5.2 | 8.7 | 0.00 | 0.14 | 0.14 | 1 | 1011.8 |
| 20260506125536 | 44 | 323 | 4.3 | 8.7 | 0.00 | 0.14 | 0.14 | 1 | 1011.7 |
| 20260506125033 | 43 | 310 | 5.2 | 8.7 | 0.00 | 0.14 | 0.14 | 1 | 1011.7 |
| 20260506124532 | 44 | 318 | 5.2 | 8.7 | 0.00 | 0.14 | 0.14 | 1 | 1011.7 |
| 20260506124031 | 44 | 323 | 5.2 | 8.7 | 0.00 | 0.14 | 0.14 | 1 | 1011.5 |
| 20260506123530 | 43 | 297 | 5.2 | 8.7 | 0.00 | 0.14 | 0.14 | 1 | 1011.5 |
| 20260506123028 | 43 | 295 | 5.2 | 7.8 | 0.00 | 0.14 | 0.14 | 1 | 1011.4 |
| 20260506122527 | 43 | 308 | 5.2 | 7.8 | 0.00 | 0.14 | 0.14 | 1 | 1011.4 |
| 20260506122025 | 43 | 328 | 3.5 | 7.8 | 0.00 | 0.14 | 0.14 | 1 | 1011.3 |
| 20260506121523 | 44 | 306 | 3.5 | 8.7 | 0.00 | 0.14 | 0.14 | 1 | 1011.2 |
| 20260506121024 | 44 | 350 | 5.2 | 8.7 | 0.00 | 0.14 | 0.14 | 1 | 1011.1 |
| 20260506120520 | 45 | 338 | 4.3 | 10.4 | 0.00 | 0.14 | 0.14 | 1 | 1011.1 |
| 20260506120019 | 45 | 303 | 6.1 | 13.0 | 0.00 | 0.14 | 0.14 | 1 | 1011.0 |
| 20260506115516 | 45 | 291 | 8.7 | 13.0 | 0.00 | 0.14 | 0.14 | 1 | 1011.0 |
| 20260506115015 | 45 | 311 | 8.7 | 13.9 | 0.00 | 0.14 | 0.14 | 1 | 1010.9 |
| 20260506114515 | 45 | 299 | 9.6 | 13.0 | 0.00 | 0.14 | 0.14 | 1 | 1010.8 |
| 20260506114013 | 45 | 297 | 8.7 | 15.6 | 0.00 | 0.14 | 0.14 | 1 | 1010.8 |
| 20260506113512 | 45 | 298 | 9.6 | 15.6 | 0.00 | 0.14 | 0.14 | 1 | 1010.8 |
| 20260506113010 | 45 | 311 | 10.4 | 14.8 | 0.00 | 0.14 | 0.14 | 1 | 1010.8 |
| 20260506112509 | 45 | 313 | 9.6 | 14.8 | 0.00 | 0.14 | 0.14 | 1 | 1010.7 |
| 20260506112007 | 45 | 301 | 9.6 | 13.9 | 0.00 | 0.14 | 0.14 | 1 | 1010.7 |
| 20260506111506 | 45 | 302 | 10.4 | 13.9 | 0.00 | 0.14 | 0.14 | 1 | 1010.6 |
| 20260506111003 | 45 | 293 | 8.7 | 13.9 | 0.00 | 0.14 | 0.14 | 1 | 1010.6 |
| 20260506110502 | 45 | 310 | 6.1 | 9.6 | 0.00 | 0.14 | 0.14 | 1 | 1010.5 |
| 20260506110002 | 45 | 309 | 4.3 | 10.4 | 0.00 | 0.14 | 0.14 | 1 | 1010.4 |
| 20260506105600 | 45 | 304 | 4.3 | 10.4 | 0.00 | 0.14 | 0.14 | 1 | 1010.4 |
| 20260506105057 | 45 | 285 | 2.6 | 8.7 | 0.00 | 0.14 | 0.14 | 1 | 1010.2 |
| 20260506104607 | 45 | 307 | 3.5 | 9.6 | 0.00 | 0.14 | 0.14 | 1 | 1010.2 |
| 20260506104055 | 45 | 311 | 4.3 | 8.7 | 0.00 | 0.14 | 0.14 | 1 | 1010.0 |
| 20260506103553 | 44 | 294 | 4.3 | 7.8 | 0.00 | 0.14 | 0.14 | 1 | 1009.8 |
| 20260506103054 | 44 | 319 | 3.5 | 5.2 | 0.00 | 0.14 | 0.14 | 1 | 1009.7 |
| 20260506102550 | 43 | 315 | 2.6 | 6.1 | 0.00 | 0.14 | 0.14 | 1 | 1009.5 |
| 20260506102048 | 43 | 333 | 2.6 | 3.5 | 0.00 | 0.14 | 0.14 | 1 | 1009.4 |
| 20260506101558 | 43 | 333 | 0.0 | 0.0 | 0.00 | 0.14 | 0.14 | 1 | 1009.2 |
| 20260506101045 | 43 | 333 | 0.0 | 0.0 | 0.00 | 0.14 | 0.14 | 1 | 1009.1 |
| 20260506100546 | 43 | 333 | 0.0 | 0.0 | 0.00 | 0.14 | 0.14 | 1 | 1009.1 |
| 20260506100043 | 42 | 333 | 0.0 | 0.0 | 0.00 | 0.14 | 0.14 | 1 | 1008.9 |
| 20260506095542 | 42 | 333 | 0.0 | 0.0 | 0.00 | 0.15 | 0.14 | 1 | 1008.9 |
| 20260506095040 | 42 | 333 | 0.0 | 0.0 | 0.00 | 0.15 | 0.14 | 1 | 1008.9 |
| 20260506094539 | 42 | 333 | 0.0 | 0.0 | 0.00 | 0.15 | 0.14 | 1 | 1008.8 |
| 20260506094037 | 42 | 333 | 0.0 | 0.0 | 0.00 | 0.15 | 0.14 | 1 | 1008.7 |
| 20260506093537 | 42 | 333 | 0.0 | 0.0 | 0.00 | 0.15 | 0.14 | 1 | 1008.7 |
| 20260506093035 | 41 | 333 | 0.0 | 0.0 | 0.00 | 0.15 | 0.14 | 1 | 1008.7 |
| 20260506092533 | 41 | 35 | 0.0 | 0.0 | 0.00 | 0.15 | 0.14 | 1 | 1008.4 |
| 20260506092033 | 41 | 35 | 0.0 | 1.7 | 0.00 | 0.15 | 0.14 | 1 | 1008.3 |
| 20260506091530 | 41 | 35 | 0.0 | 1.7 | 0.00 | 0.15 | 0.14 | 1 | 1008.1 |
| 20260506091030 | 41 | 35 | 0.0 | 1.7 | 0.00 | 0.15 | 0.14 | 1 | 1008.0 |
| 20260506090527 | 41 | 35 | 0.0 | 3.5 | 0.00 | 0.15 | 0.14 | 1 | 1008.0 |
| 20260506090026 | 41 | 35 | 0.9 | 3.5 | 0.00 | 0.15 | 0.14 | 1 | 1008.1 |
| 20260506085525 | 41 | 35 | 1.7 | 3.5 | 0.00 | 0.16 | 0.14 | 1 | 1008.0 |
| 20260506085023 | 42 | 35 | 0.0 | 3.5 | 0.00 | 0.16 | 0.14 | 1 | 1007.9 |
| 20260506084533 | 43 | 5 | 0.9 | 2.6 | 0.00 | 0.16 | 0.14 | 1 | 1007.8 |
| 20260506084021 | 43 | 345 | 0.9 | 2.6 | 0.00 | 0.16 | 0.14 | 1 | 1007.7 |
| 20260506083521 | 42 | 345 | 0.0 | 2.6 | 0.00 | 0.16 | 0.14 | 1 | 1007.7 |
| 20260506083022 | 42 | 345 | 0.0 | 3.5 | 0.00 | 0.16 | 0.14 | 1 | 1007.8 |
| 20260506082515 | 43 | 345 | 0.9 | 2.6 | 0.00 | 0.16 | 0.14 | 1 | 1007.8 |
| 20260506082015 | 43 | 234 | 0.9 | 3.5 | 0.00 | 0.16 | 0.14 | 1 | 1007.5 |
| 20260506081513 | 42 | 172 | 0.9 | 2.6 | 0.00 | 0.16 | 0.14 | 1 | 1007.7 |
| 20260506081012 | 42 | 172 | 0.0 | 1.7 | 0.02 | 0.16 | 0.14 | 1 | 1007.7 |
| 20260506080510 | 43 | 172 | 0.0 | 1.7 | 0.05 | 0.16 | 0.14 | 1 | 1007.6 |
| 20260506073040 | 44 | 172 | 0.0 | 6.1 | 0.12 | 0.16 | 0.14 | 1 | 1007.5 |
| 20260506072539 | 45 | 192 | 3.5 | 8.7 | 0.13 | 0.16 | 0.14 | 1 | 1007.2 |
| 20260506072041 | 45 | 180 | 5.2 | 8.7 | 0.14 | 0.16 | 0.14 | 1 | 1007.1 |
| 20260506071538 | 45 | 163 | 6.1 | 7.8 | 0.13 | 0.15 | 0.13 | 1 | 1007.2 |
| 20260506071035 | 46 | 209 | 0.9 | 7.8 | 0.12 | 0.14 | 0.12 | 1 | 1007.9 |
| 20260506070532 | 46 | 259 | 5.2 | 8.7 | 0.09 | 0.11 | 0.09 | 1 | 1008.3 |
| 20260506062020 | 48 | 323 | 7.0 | 13.9 | 0.00 | 0.02 | 0.00 | 1 | 1007.5 |
| 20260506061518 | 49 | 345 | 9.6 | 14.8 | 0.00 | 0.02 | 0.00 | 1 | 1007.3 |
| 20260506061019 | 50 | 332 | 9.6 | 15.6 | 0.00 | 0.02 | 0.00 | 1 | 1007.1 |
| 20260506060514 | 50 | 345 | 9.6 | 15.6 | 0.00 | 0.02 | 0.00 | 1 | 1006.8 |
| 20260506051059 | 46 | 39 | 1.7 | 3.5 | 0.00 | 0.02 | 0.02 | 16 | 1004.9 |
| 20260506050557 | 46 | 39 | 0.0 | 3.5 | 0.00 | 0.02 | 0.02 | 15 | 1004.9 |
| 20260506050117 | 46 | 19 | 1.7 | 3.5 | 0.00 | 0.02 | 0.02 | 13 | 1005.1 |
| 20260506045053 | 46 | 335 | 1.7 | 4.3 | 0.00 | 0.02 | 0.02 | 17 | 1005.0 |
| 20260506044551 | 46 | 124 | 1.7 | 3.5 | 0.00 | 0.02 | 0.02 | 20 | 1004.7 |
| 20260506044049 | 47 | 277 | 0.0 | 3.5 | 0.00 | 0.02 | 0.02 | 18 | 1004.7 |
| 20260506043548 | 47 | 273 | 0.9 | 4.3 | 0.00 | 0.02 | 0.02 | 21 | 1004.8 |
| 20260506043049 | 47 | 223 | 0.0 | 4.3 | 0.00 | 0.02 | 0.02 | 23 | 1004.7 |
| 20260506042546 | 47 | 223 | 0.9 | 5.2 | 0.00 | 0.02 | 0.02 | 25 | 1004.7 |
| 20260506042046 | 48 | 180 | 2.6 | 5.2 | 0.00 | 0.02 | 0.02 | 24 | 1004.6 |
| 20260506041557 | 48 | 170 | 2.6 | 7.8 | 0.00 | 0.02 | 0.02 | 26 | 1004.6 |
| 20260506041041 | 48 | 171 | 4.3 | 7.8 | 0.00 | 0.02 | 0.02 | 28 | 1004.5 |
| 20260506040539 | 48 | 150 | 3.5 | 8.7 | 0.00 | 0.02 | 0.02 | 27 | 1004.3 |
| 20260506040039 | 47 | 164 | 6.1 | 8.7 | 0.00 | 0.02 | 0.02 | 24 | 1004.2 |
| 20260506035540 | 46 | 145 | 5.2 | 8.7 | 0.00 | 0.02 | 0.02 | 20 | 1004.1 |
| 20260506035035 | 46 | 166 | 3.5 | 7.8 | 0.00 | 0.02 | 0.02 | 25 | 1004.1 |
| 20260506034547 | 45 | 121 | 3.5 | 7.0 | 0.00 | 0.02 | 0.02 | 32 | 1003.9 |
| 20260506034032 | 46 | 128 | 2.6 | 7.0 | 0.00 | 0.02 | 0.02 | 36 | 1003.9 |
| 20260506033530 | 47 | 176 | 1.7 | 3.5 | 0.00 | 0.02 | 0.02 | 38 | 1003.9 |
| 20260506033028 | 47 | 176 | 1.7 | 4.3 | 0.00 | 0.02 | 0.02 | 37 | 1003.9 |
| 20260506032527 | 48 | 176 | 2.6 | 4.3 | 0.00 | 0.02 | 0.02 | 38 | 1003.8 |
| 20260506032027 | 48 | 176 | 2.6 | 4.3 | 0.00 | 0.02 | 0.02 | 37 | 1003.8 |
| 20260506031525 | 48 | 176 | 0.9 | 3.5 | 0.00 | 0.02 | 0.02 | 40 | 1003.8 |
| 20260506031024 | 49 | 176 | 0.0 | 3.5 | 0.00 | 0.02 | 0.02 | 42 | 1003.7 |
| 20260506030521 | 50 | 176 | 0.9 | 6.1 | 0.00 | 0.02 | 0.02 | 43 | 1003.7 |
| 20260506030020 | 50 | 176 | 2.6 | 7.0 | 0.00 | 0.02 | 0.02 | 42 | 1003.6 |
| 20260506025521 | 50 | 177 | 4.3 | 7.0 | 0.00 | 0.02 | 0.02 | 41 | 1003.5 |
| 20260506025017 | 49 | 182 | 4.3 | 7.0 | 0.00 | 0.02 | 0.02 | 41 | 1003.4 |
| 20260506024515 | 49 | 200 | 0.9 | 5.2 | 0.00 | 0.02 | 0.02 | 45 | 1003.3 |
| 20260506024014 | 50 | 244 | 2.6 | 6.1 | 0.00 | 0.02 | 0.02 | 46 | 1003.1 |
| 20260506023516 | 50 | 251 | 1.7 | 5.2 | 0.00 | 0.02 | 0.02 | 49 | 1003.0 |
| 20260506023012 | 52 | 244 | 2.6 | 6.1 | 0.00 | 0.02 | 0.02 | 50 | 1002.9 |
| 20260506022509 | 52 | 154 | 4.3 | 6.1 | 0.00 | 0.02 | 0.02 | 51 | 1002.7 |
| 20260506022008 | 53 | 155 | 3.5 | 7.8 | 0.00 | 0.02 | 0.02 | 51 | 1002.7 |
| 20260506021507 | 53 | 154 | 6.1 | 8.7 | 0.00 | 0.02 | 0.02 | 51 | 1002.6 |
| 20260506021006 | 54 | 149 | 5.2 | 10.4 | 0.00 | 0.02 | 0.02 | 51 | 1002.5 |
| 20260506020508 | 54 | 149 | 7.0 | 10.4 | 0.00 | 0.02 | 0.02 | 51 | 1002.5 |
| 20260506020004 | 55 | 144 | 6.1 | 8.7 | 0.00 | 0.02 | 0.02 | 51 | 1002.4 |
| 20260506015503 | 55 | 144 | 6.1 | 9.6 | 0.00 | 0.02 | 0.02 | 50 | 1002.5 |
| 20260506015005 | 56 | 153 | 7.0 | 10.4 | 0.00 | 0.02 | 0.02 | 50 | 1002.4 |
| 20260506014502 | 57 | 155 | 7.8 | 12.2 | 0.00 | 0.02 | 0.02 | 49 | 1002.3 |
| 20260506014104 | 58 | 186 | 7.0 | 12.2 | 0.00 | 0.02 | 0.02 | 48 | 1002.3 |
| 20260506013558 | 58 | 163 | 8.7 | 13.0 | 0.00 | 0.02 | 0.02 | 48 | 1002.3 |
| 20260506013104 | 59 | 140 | 10.4 | 13.0 | 0.00 | 0.02 | 0.02 | 47 | 1002.2 |
| 20260506012558 | 59 | 174 | 6.1 | 12.2 | 0.00 | 0.02 | 0.02 | 47 | 1002.2 |
| 20260506012055 | 60 | 155 | 7.0 | 10.4 | 0.00 | 0.02 | 0.02 | 46 | 1002.1 |
| 20260506011556 | 60 | 163 | 7.8 | 10.4 | 0.00 | 0.02 | 0.02 | 46 | 1002.0 |
| 20260506011051 | 60 | 167 | 7.0 | 9.6 | 0.00 | 0.02 | 0.02 | 46 | 1001.9 |
| 20260506010549 | 61 | 157 | 7.8 | 12.2 | 0.00 | 0.02 | 0.02 | 46 | 1001.9 |
| 20260506010049 | 61 | 167 | 7.8 | 13.0 | 0.00 | 0.02 | 0.02 | 45 | 1001.9 |
| 20260506005547 | 62 | 181 | 3.5 | 7.0 | 0.00 | 0.02 | 0.02 | 44 | 1001.9 |
| 20260506005048 | 62 | 145 | 5.2 | 9.6 | 0.00 | 0.02 | 0.02 | 44 | 1001.9 |
| 20260506004544 | 62 | 139 | 4.3 | 9.6 | 0.00 | 0.02 | 0.02 | 44 | 1001.9 |
| 20260506004042 | 62 | 188 | 1.7 | 8.7 | 0.00 | 0.02 | 0.02 | 44 | 1001.9 |
| 20260506003541 | 62 | 137 | 6.1 | 10.4 | 0.00 | 0.02 | 0.02 | 44 | 1001.9 |
| 20260506003040 | 62 | 181 | 7.0 | 13.0 | 0.00 | 0.02 | 0.02 | 44 | 1001.7 |
| 20260506002538 | 62 | 118 | 5.2 | 9.6 | 0.00 | 0.02 | 0.02 | 43 | 1001.8 |
| 20260506002036 | 62 | 139 | 5.2 | 9.6 | 0.00 | 0.02 | 0.02 | 44 | 1001.7 |
| 20260506001535 | 62 | 129 | 4.3 | 10.4 | 0.00 | 0.02 | 0.02 | 43 | 1001.7 |
| 20260506001033 | 62 | 132 | 6.1 | 9.6 | 0.00 | 0.02 | 0.02 | 44 | 1001.7 |
| 20260506000532 | 62 | 129 | 6.1 | 8.7 | 0.00 | 0.02 | 0.02 | 44 | 1001.6 |
| 20260506000030 | 62 | 182 | 7.0 | 9.6 | 0.00 | 0.02 | 0.02 | 44 | 1001.7 |
| 20260505235529 | 62 | 180 | 2.6 | 7.8 | 0.00 | 0.02 | 0.02 | 44 | 1001.6 |
| 20260505235027 | 62 | 173 | 5.2 | 7.8 | 0.00 | 0.02 | 0.02 | 43 | 1001.7 |
| 20260505234526 | 63 | 204 | 2.6 | 6.1 | 0.00 | 0.02 | 0.02 | 43 | 1001.7 |
| 20260505234025 | 62 | 209 | 0.9 | 4.3 | 0.00 | 0.02 | 0.02 | 44 | 1001.7 |
| 20260505233527 | 62 | 240 | 0.0 | 7.8 | 0.00 | 0.02 | 0.02 | 44 | 1001.7 |
| 20260505233027 | 61 | 244 | 3.5 | 7.8 | 0.00 | 0.02 | 0.02 | 46 | 1001.7 |
| 20260505232521 | 61 | 194 | 0.9 | 7.0 | 0.00 | 0.02 | 0.02 | 44 | 1001.7 |
| 20260505232022 | 61 | 278 | 0.0 | 0.0 | 0.00 | 0.02 | 0.02 | 44 | 1001.7 |
| 20260505231523 | 61 | 225 | 0.0 | 1.7 | 0.00 | 0.02 | 0.02 | 44 | 1001.8 |
| 20260505231020 | 61 | 225 | 0.0 | 6.1 | 0.00 | 0.02 | 0.02 | 45 | 1001.7 |
| 20260505230520 | 61 | 225 | 1.7 | 6.1 | 0.00 | 0.02 | 0.02 | 45 | 1001.7 |
| 20260505230020 | 60 | 202 | 1.7 | 5.2 | 0.00 | 0.02 | 0.02 | 45 | 1001.7 |
| 20260505225518 | 60 | 230 | 0.0 | 5.2 | 0.00 | 0.02 | 0.02 | 45 | 1001.7 |
| 20260505225017 | 60 | 170 | 0.9 | 7.0 | 0.00 | 0.02 | 0.02 | 44 | 1001.8 |
| 20260505224516 | 60 | 222 | 1.7 | 8.7 | 0.00 | 0.02 | 0.02 | 44 | 1001.8 |
| 20260505224013 | 61 | 245 | 3.5 | 8.7 | 0.00 | 0.02 | 0.02 | 45 | 1001.8 |
| 20260505223512 | 60 | 240 | 1.7 | 6.1 | 0.00 | 0.02 | 0.02 | 45 | 1001.8 |
| 20260505223011 | 60 | 217 | 2.6 | 6.1 | 0.00 | 0.02 | 0.02 | 44 | 1001.9 |
| 20260505222512 | 60 | 249 | 1.7 | 6.1 | 0.00 | 0.02 | 0.02 | 46 | 1001.9 |
| 20260505222008 | 60 | 325 | 0.9 | 5.2 | 0.00 | 0.02 | 0.02 | 45 | 1002.0 |
| 20260505221507 | 60 | 273 | 1.7 | 5.2 | 0.00 | 0.02 | 0.02 | 45 | 1002.0 |
| 20260505221007 | 60 | 359 | 0.0 | 3.5 | 0.00 | 0.02 | 0.02 | 45 | 1002.0 |
| 20260505220503 | 60 | 359 | 0.9 | 5.2 | 0.00 | 0.02 | 0.02 | 44 | 1002.1 |
| 20260505220006 | 60 | 276 | 0.9 | 5.2 | 0.00 | 0.02 | 0.02 | 44 | 1002.1 |
| 20260505215601 | 60 | 309 | 1.7 | 5.2 | 0.00 | 0.02 | 0.02 | 44 | 1002.1 |
| 20260505215059 | 60 | 18 | 0.9 | 7.0 | 0.00 | 0.02 | 0.02 | 45 | 1002.0 |
| 20260505214607 | 60 | 326 | 0.0 | 10.4 | 0.00 | 0.02 | 0.02 | 45 | 1002.1 |
| 20260505214057 | 60 | 329 | 2.6 | 10.4 | 0.00 | 0.02 | 0.02 | 44 | 1002.1 |
| 20260505213555 | 60 | 60 | 1.7 | 9.6 | 0.00 | 0.02 | 0.02 | 44 | 1002.1 |
| 20260505213054 | 61 | 299 | 0.0 | 5.2 | 0.00 | 0.02 | 0.02 | 44 | 1002.1 |
| 20260505212553 | 60 | 101 | 1.7 | 7.8 | 0.00 | 0.02 | 0.02 | 45 | 1002.2 |
| 20260505212051 | 60 | 124 | 2.6 | 10.4 | 0.00 | 0.02 | 0.02 | 44 | 1002.2 |
| 20260505211600 | 61 | 179 | 6.1 | 10.4 | 0.00 | 0.02 | 0.02 | 44 | 1002.3 |
| 20260505211050 | 61 | 191 | 0.9 | 7.8 | 0.00 | 0.02 | 0.02 | 44 | 1002.2 |
| 20260505210549 | 61 | 332 | 1.7 | 10.4 | 0.00 | 0.02 | 0.02 | 44 | 1002.2 |
| 20260505210053 | 60 | 85 | 3.5 | 12.2 | 0.00 | 0.02 | 0.02 | 44 | 1002.4 |
| 20260505205548 | 61 | 186 | 4.3 | 9.6 | 0.00 | 0.02 | 0.02 | 44 | 1002.4 |
| 20260505205048 | 61 | 157 | 1.7 | 8.7 | 0.00 | 0.02 | 0.02 | 46 | 1002.4 |
| 20260505204544 | 60 | 68 | 2.6 | 11.3 | 0.00 | 0.02 | 0.02 | 45 | 1002.5 |
| 20260505204044 | 60 | 122 | 5.2 | 11.3 | 0.00 | 0.02 | 0.02 | 45 | 1002.6 |
| 20260505203542 | 60 | 107 | 3.5 | 9.6 | 0.00 | 0.02 | 0.02 | 47 | 1002.6 |
| 20260505203040 | 58 | 105 | 5.2 | 9.6 | 0.00 | 0.02 | 0.02 | 48 | 1002.5 |
| 20260505202539 | 58 | 137 | 5.2 | 8.7 | 0.00 | 0.02 | 0.02 | 47 | 1002.6 |
| 20260505202037 | 59 | 149 | 3.5 | 8.7 | 0.00 | 0.02 | 0.02 | 46 | 1002.6 |
| 20260505201536 | 59 | 122 | 3.5 | 8.7 | 0.00 | 0.02 | 0.02 | 45 | 1002.7 |
| 20260505201038 | 59 | 196 | 4.3 | 8.7 | 0.00 | 0.02 | 0.02 | 45 | 1002.6 |
| 20260505200533 | 59 | 128 | 4.3 | 10.4 | 0.00 | 0.02 | 0.02 | 46 | 1002.7 |
| 20260505200037 | 59 | 131 | 4.3 | 10.4 | 0.00 | 0.02 | 0.02 | 46 | 1002.6 |
| 20260505195529 | 58 | 153 | 7.0 | 10.4 | 0.00 | 0.02 | 0.02 | 46 | 1002.6 |